Regional Weather Roundup
Issued by NWS

Home | Current Version | Previous Version | Graphics & Text | Print | Product List | Glossary On
Versions: 1 2 3 4 5 6 7 8 9 10 11 12 13 14 15 16 17 18 19 20 21 22 23 24 25 26 27 28 29 30 31 32 33 34 35 36 37 38 39 40 41 42 43 44 45 46 47 48 49 50
000
ASUS43 KDMX 020407
RWRIA

WEATHER ROUNDUP FOR IOWA
NATIONAL WEATHER SERVICE DES MOINES IA
1100 PM CDT WED OCT 01 2014

NOTE: "FAIR" INDICATES FEW OR NO CLOUDS BELOW 12,000 FEET WITH NO
SIGNIFICANT WEATHER AND/OR OBSTRUCTIONS TO VISIBILITY.

* - THESE STATIONS ARE NOT NWS STATIONS...THUS NOT UNDER NWS
QUALITY CONTROL.  THEY ALSO DO NOT REPORT WEATHER SUCH
AS PRECIPITATION OR FOG.

IAZ001>003-012>014-020>022-031>034-043>046-020500-
   NORTHWEST IOWA

CITY           SKY/WX    TMP DP  RH WIND       PRES   REMARKS
CARROLL *      FOG       59  59 100 CALM      29.80S VSB<1/4
CHEROKEE *     MOCLDY    63  63 100 CALM      29.81S
DENISON *      CLEAR     63  63 100 CALM      29.78S
LE MARS *      MOCLDY    59  57  94 CALM      29.81S
ORANGE CITY *  PTCLDY    64  52  63 N6        29.82R
SHELDON *      PTCLDY    54  54 100 CALM      29.81R
SIOUX CITY     MOCLDY    60  58  92 NW3       29.80S
SPENCER        MOCLDY    62  59  90 E5        29.81S
STORM LAKE *   CLEAR     61  59  94 S6        29.82S
$$

IAZ055>058-069>071-079>083-090>094-020500-
   SOUTHWEST IOWA

CITY           SKY/WX    TMP DP  RH WIND       PRES   REMARKS
ATLANTIC *     MOCLDY    63  63 100 NE3       29.79F FOG
AUDUBON *      CLEAR     59  54  82 CALM      29.82S HAZE
CLARINDA *     PTCLDY    64  64 100 CALM      29.80R FOG
COUNCIL BLFS * CLOUDY    64  64 100 E7        29.79R
CRESTON *      FOG       63  63 100 E6        29.81S VSB 0
HARLAN  *      PTCLDY    63  63 100 SE5       29.84R FOG
LAMONI         FOG       65  64  97 SE5       29.80R VSB 1
RED OAK *      CLEAR     64  63  94 CALM      29.79S FOG
SHENANDOAH *   CLEAR     66  64  94 E5        29.79S FOG
$$

IAZ047>049-059>061-072>074-084-020500-
   CENTRAL IOWA

CITY           SKY/WX    TMP DP  RH WIND       PRES   REMARKS
AMES           FOG       58  58 100 S5        29.82R VSB 1/4
ANKENY *       CLEAR     61  61 100 CALM      29.80F FOG
CHARITON *     FOG       63  63 100 E5        29.80F VSB 0
DES MOINES     PTCLDY    65  63  93 CALM      29.80F FOG
GRINNELL*      CLOUDY    63  61  94 CALM      29.82F FOG
KNOXVILLE *    CLOUDY    63  61  94 NE3       29.79F FOG
MARSHALLTOWN   CLOUDY    65  63  93 S3        29.82R
PELLA *          N/A     64  63  94 CALM      29.81F FOG
PERRY *        FOG       59  59 100 SE5       29.82R VSB 1/4
$$

IAZ004>006-015-016-023>025-035-036-020500-
   NORTH CENTRAL IOWA

CITY           SKY/WX    TMP DP  RH WIND       PRES   REMARKS
ALGONA *       CLEAR     63  61  94 SE6       29.82S FOG
CLARION *      CLEAR     61  61 100 SE7       29.82S
ESTHERVILLE    CLOUDY    60  57  89 SE10      29.82R THUNDER
FORT DODGE *   CLEAR     59  55  88 CALM      29.82S
MASON CITY     FOG       53  53 100 CALM      29.84S VSB 1/4
FOREST CITY *  FOG       52  52 100 CALM      29.83F VSB 0
IOWA FALLS *     N/A     63  61  94 CALM      29.82F FOG
$$

IAZ007>011-017>019-026>030-037>042-050>054-066-020500-
   NORTHEAST IOWA

CITY           SKY/WX    TMP DP  RH WIND       PRES   REMARKS
CEDAR RAPIDS   CLOUDY    64  64 100 CALM      29.83F FOG
CHARLES CITY * CLOUDY    63  61  94 CALM      29.83F
CLINTON *      MOCLDY    63  57  82 E5        29.87F
DECORAH *      CLOUDY    63  61  94 VRB5      29.82F
MONTICELLO *   CLOUDY    66  63  88 CALM      29.85S
OELWEIN *      CLOUDY    63  61  94 SE5       29.84S
WATERLOO       CLOUDY    65  61  87 SE6       29.81F
$$

IAZ064-065-067-068-078-020500-
   EAST CENTRAL IOWA

CITY           SKY/WX    TMP DP  RH WIND       PRES   REMARKS
IOWA CITY      CLOUDY    66  64  93 CALM      29.84F
MT. PLEASANT * CLOUDY    63  63 100 CALM      29.83R FOG
MUSCATINE *    CLOUDY    63  61  94 CALM      29.83S FOG
QUAD CITIES    CLOUDY    61  58  90 SE3       29.83F FOG
$$

IAZ062-063-075>077-085>089-095>099-020500-
   SOUTHEAST IOWA

CITY           SKY/WX    TMP DP  RH WIND       PRES   REMARKS
BURLINGTON     CLOUDY    67  65  93 SE5       29.81F
FAIRFIELD *    CLOUDY    64  63  94 E5        29.82F
FORT MADISON * PTCLDY    68  64  88 CALM      29.82F
KEOKUK *       CLEAR     66  64  94 E5        29.80F
OSKALOOSA *    CLOUDY    64  64 100 E3        29.82S FOG
CENTERVILLE *  CLEAR     64  64 100 CALM      29.81F
OTTUMWA        CLOUDY    65  63  93 E6        29.81S FOG
WASHINGTON *   CLOUDY    64  64 100 CALM      29.83S FOG
$$

ABBREVIATIONS USED IN REMARKS
   TC - TEMPERATURES IN CELSIUS
  WCI - WIND CHILL INDEX
   HX - HEAT INDEX
  VSB - VISIBILITY
$$



USA.gov is the U.S. government's official web portal to all federal, state and local government web resources and services.